Terug naar catalogus

CZ-4C DEB

ActiefSSO
NORAD 38662·DEBRIS·🇨🇳 China

Gelanceerd May 29, 2012 vanaf Taiyuan Satellite Launch Center

Loading…

Volgende Passages (komende 24 uur)

TLE

VersSource: Space-Track

Epoch: Sep 14, 2026, 12:11 UTC

1 38662U 12029D   26257.50826605  .00000030  00000-0  17942-3 0  9992
2 38662 100.4896  13.7416 0131150 155.6296 205.1095 13.19612434685243

Volg CZ-4C DEB in realtime met AllMySat

Download on the App Store